User: anonymous   Login
Location: Unspecified
(0.0000°N, 0.0000°E)
Time: 07:15:25
(UTC+00:00)
Language:

Freja - Orbit

View from above orbital plane
View from above orbital plane
View from above satellite
View from above satellite

Ground track
Ground track

The orbit data is extracted from the following two-line orbital elements,

1 22161U 92064A   17178.83463697 -.00000097 +00000-0 +59316-5 0  9999
2 22161 062.9976 037.5350 0751449 319.2348 035.4686 13.30270000197876
Epoch (UTC): 27 June 2017 20:01:52
Eccentricity: 0.0751449
inclination: 62.9976°
perigee height: 580 km
apogee height: 1711 km
right ascension of ascending node: 37.5350°
argument of perigee: 319.2348°
revolutions per day: 13.30270000
mean anomaly at epoch: 35.4686°
orbit number at epoch: 19787

The dashed part of the orbit path shows where the satellite is in the earth's shadow,  

DLR